Miscellaneous Local Product
Issued by NWS North Platte, NE

Home | Current Version | Previous Version | Graphics & Text | Print | Product List | Glossary On
Versions: 1 2 3 4 5 6 7 8 9 10 11 12 13 14 15 16 17 18 19 20 21 22 23 24 25 26 27 28 29 30 31 32 33 34 35 36 37 38 39 40 41 42 43 44 45 46 47 48 49 50
000
AXUS43 KLBF 210010
MISLBF


WESTERN AND NORTH CENTRAL NEBRASKA HOURLY WEATHER ROUNDUP
NATIONAL WEATHER SERVICE NORTH PLATTE NE
600 PM CST FRI JAN 20 2017

NOTE: "FAIR" INDICATES FEW OR NO CLOUDS BELOW 12,000 FEET WITH NO
SIGNIFICANT WEATHER AND/OR OBSTRUCTIONS TO VISIBILITY.

NOTE: STATIONS NOT REPORTING VARIABLES SUCH AS SKY/WEATHER OR
PRESSURE ARE PROVIDED BY RAWS AND APRS NETWORKS AND ARE NOT UNDER
NATIONAL WEATHER SERVICE QUALITY CONTROL.

...OBSERVATIONS IN AND NEAR THE EASTERN PANHANDLE OF NEBRASKA...

CITY           SKY/WX    TMP DP  RH WIND       PRES   REMARKS
PINE RIDGE     CLOUDY    36  33  89 W5        29.36R WCI  32
CHADRON        CLOUDY    36  32  85 W14       29.37R WCI  27
ALLIANCE       CLOUDY    37  31  78 NW13      29.37R WCI  29
SIDNEY         CLOUDY    36  31  82 NW14      29.39R WCI  27
$$

...OBSERVATIONS IN NORTHERN NEBRASKA AND FAR SOUTHERN SOUTH DAKOTA...

CITY           SKY/WX    TMP DP  RH WIND       PRES   REMARKS
WINNER         FAIR      35  28  75 SW5       29.34R WCI  31
VALENTINE      PTCLDY    33  26  75 SW5       29.34R WCI  29
THEDFORD       CLOUDY    37  33  86 SW7       29.36R WCI  31
AINSWORTH      CLOUDY    37  31  80 SW5       29.34S WCI  33
O`NEILL        CLOUDY    41  39  93 S9        29.37S
ORD            CLOUDY    39  38  96 SE3       29.36S FOG
BROKEN BOW     CLOUDY    38  36  92 CALM      29.35S
VALENTINE NWR    N/A     39  29  67 W3          N/A
BUTTE            N/A     41  35  77 S9          N/A
HALSEY           N/A     38  33  81 SW5         N/A  WCI  34
SARGENT          N/A     38  28  68 CALM        N/A
CHAMBERS         N/A     40  38  92 S3          N/A
EWING            N/A     40  39  95 S3          N/A
$$

...OBSERVATIONS IN SOUTHWEST NEBRASKA AND FAR NORTHEAST COLORADO...

CITY           SKY/WX    TMP DP  RH WIND       PRES   REMARKS
WRAY           MOCLDY    37  34  87 W6        29.38  WCI  33
HOLYOKE        CLOUDY    41  32  70 NW9       29.38R
IMPERIAL       CLOUDY    39  34  82 NW7       29.37R WCI  34
OGALLALA       CLOUDY    39  33  77 CALM      29.37S
NORTH PLATTE   CLOUDY    36  31  82 W6        29.36S WCI  31
MCCOOK         CLOUDY    38  33  82 W7        29.37S WCI  33
LEXINGTON      CLOUDY    39  36  89 CALM      29.37R
STAPLETON        N/A     36  33  88 CALM        N/A
GOTHENBURG       N/A     40  33  77 SW3         N/A
CALLAWAY         N/A     35  32  90 SW5         N/A  WCI  31
$$

...OBSERVATIONS IN CENTRAL LINCOLN COUNTY AREA...

CITY           SKY/WX    TMP DP  RH WIND       PRES   REMARKS
N.P. AIRPORT   CLOUDY    36  31  82 W6        29.36S WCI  31
N.P. DOWNTOWN    N/A     38  33  84 CALM        N/A
N.P. SOUTHEAST   N/A     38  33  81 CALM        N/A
N.P. HILLCREST   N/A     38  34  86 CALM        N/A
$$

...SOME OBSERVATIONS FROM AROUND THE REGION...

CITY           SKY/WX    TMP DP  RH WIND       PRES   REMARKS
LARAMIE        CLOUDY    24  15  68 W9        29.41R WCI  14
CHEYENNE       CLOUDY    33  18  53 NW15G21   29.40R WCI  23
DENVER         PTCLDY    36  28  73 E7        29.39R WCI  30
AKRON          CLOUDY    37  30  75 NW8       29.40R WCI  31
SCOTTSBLUFF    LGT RAIN  37  33  85 W10       29.40R WCI  30
RAPID CITY     CLEAR     37  28  70 NW15      29.32R WCI  28
BISMARCK       CLOUDY    31  30  96 W3        29.36R FOG
PIERRE         CLOUDY    15  12  88 W3        29.32S
SIOUX FALLS    FOG       39  39 100 SE12      29.44R VSB 1/2 WCI  32
OMAHA          CLOUDY    42  38  85 E6        29.46S FOG
GRAND ISLAND   FOG       39  39 100 SE5       29.38F VSB 1/4
KANSAS CITY    CLOUDY    49  46  90 SE6       29.46R FOG
WICHITA        PTCLDY    41  39  93 S15       29.44S
OKLAHOMA CITY  PTCLDY    62  33  33 SW17      29.50R
DALLAS         PTCLDY    67  38  34 S10       29.59R
AMARILLO       CLEAR     54  22  28 W23G33    29.52R
DODGE CITY     PTCLDY    43  37  79 W12       29.42R
HAYS           CLOUDY    44  37  76 W7        29.42R
GOODLAND       CLOUDY    35  34  96 SW9       29.40R WCI  28
$$




USA.gov is the U.S. government's official web portal to all federal, state and local government web resources and services.